This is the latest recevied weather packets stored in our database for station/object KY4EF. If no packets are shown the sender has not sent any weather packets the latest 10 day(s).
| Time | Temp. | Humidity | Pressure | Rain* | Wind** | Luminosity | Snow |
|---|---|---|---|---|---|---|---|
| 1777311183 | 30.56° C | 30% | 1017.9 hPa | 0 mm | - | 734 W/m² | - |
| 1777310882 | 31.11° C | 28% | 1018.1 hPa | 0 mm | - | 742 W/m² | - |
| 1777310579 | 30.56° C | 28% | 1018 hPa | 0 mm | - | 693 W/m² | - |
| 1777310276 | 30.56° C | 27% | 1018.2 hPa | 0 mm | - | 680 W/m² | - |
| 1777309973 | 30.56° C | 30% | 1018 hPa | 0 mm | - | 690 W/m² | - |
| 1777309671 | 30° C | 30% | 1018.2 hPa | 0 mm | - | 712 W/m² | - |
| 1777309368 | 30° C | 29% | 1017.8 hPa | 0 mm | - | 720 W/m² | - |
| 1777309066 | 29.44° C | 32% | 1018.1 hPa | 0 mm | - | 719 W/m² | - |
| 1777308763 | 30.56° C | 28% | 1018 hPa | 0 mm | - | 717 W/m² | - |
| 1777308458 | 30° C | 29% | 1018.1 hPa | 0 mm | - | 713 W/m² | - |
| 1777308154 | 28.33° C | 27% | 1018.1 hPa | 0 mm | - | 704 W/m² | - |
| 1777307850 | 29.44° C | 27% | 1018.1 hPa | 0 mm | - | 701 W/m² | - |
| 1777307548 | 29.44° C | 27% | 1018.4 hPa | 0 mm | - | 657 W/m² | - |
| 1777307244 | 28.89° C | 27% | 1018.4 hPa | 0 mm | - | 682 W/m² | - |
| 1777306942 | 27.78° C | 29% | 1018.3 hPa | 0 mm | - | 685 W/m² | - |
| 1777306639 | 27.78° C | 28% | 1018.3 hPa | 0 mm | - | 684 W/m² | - |
| 1777306335 | 28.33° C | 33% | 1018.4 hPa | 0 mm | - | 665 W/m² | - |
| 1777306030 | 26.11° C | 34% | 1018.4 hPa | 0 mm | - | 674 W/m² | - |
| 1777305727 | 27.78° C | 41% | 1018.4 hPa | 0 mm | - | 681 W/m² | - |
| 1777305423 | 28.33° C | 43% | 1018.5 hPa | 0 mm | - | 672 W/m² | - |
| 1777305117 | 26.67° C | 46% | 1018.5 hPa | 0 mm | - | 655 W/m² | - |
| 1777304812 | 26.11° C | 47% | 1019 hPa | 0 mm | - | 647 W/m² | - |
| 1777304510 | 26.67° C | 46% | 1019.1 hPa | 0 mm | - | 638 W/m² | - |
| 1777304207 | 25° C | 52% | 1019 hPa | 0 mm | - | 632 W/m² | - |
| 1777303904 | 25.56° C | 49% | 1018.9 hPa | 0 mm | - | 615 W/m² | - |
* Rain latest hour (hover to see other rain measurements)
** Current wind speed in m/s (hover to see current wind gust speed)